[[{"header":{"parameterUnit":"m.s-1","parameterCategory":1,"la1":30.2991,"la2":30.254,"lo1":-89.0895,"lo2":-89.0444,"dy":0.0017,"dx":0.0017,"nx":28,"ny":28,"refTime":"2025-11-10T09:00:00:Z","depth":0,"parameterNumber":2,"parameterNumberName":"U-component_of_WINDS"},"data":[0,0,0,0,0,0,0,0,0,0,0,0,0,0,0,0,0,0,0,0,0,0,0,0,0,0,0,0,0,0,0,0,0,0,0,0,0,0,0,0,0,0,0,0,0,0,0,0,0,0,0,0,0,0,0,0,0,0,0.2049,0.205,0,0.2082,0.2082,0.2083,0.2111,0.2112,0.2112,0.2112,0.2146,0.2147,0.2147,0,0,0,0,0,0,0,0,0,0,0,0,0,0.2011,0.2012,0.2049,0.205,0.205,0.2082,0.2082,0.2083,0.2111,0.2112,0.2112,0.2112,0.2146,0.2147,0.2147,0,0,0,0,0,0,0,0,0,0,0,0,0,0.2034,0.2012,0.2049,0.2068,0.207,0.2082,0.2082,0.2083,0.2111,0.2112,0.2112,0.2113,0.2146,0.2147,0.2148,0.2143,0,0,0.215,0.2151,0,0,0,0,0,0,0,0,0.2033,0.2035,0.2065,0.2067,0.2069,0.2093,0.2081,0.2103,0.2111,0.2096,0.2112,0.2113,0.2128,0.2131,0.2136,0.2145,0.2146,0.215,0.2151,0.2151,0.2152,0,0,0,0,0,0,0,0.2031,0.2034,0.2062,0.2065,0.2068,0.2075,0.2079,0.2086,0.2109,0.2097,0.2099,0.2103,0.2129,0.2135,0.2137,0.2147,0.215,0.2151,0.2152,0.2152,0.2153,0.2153,0,0,0,0,0,0,0.2027,0.2033,0.2061,0.2063,0.2052,0.2075,0.2079,0.2085,0.2109,0.2113,0.2102,0.2104,0.2133,0.2136,0.2138,0.2134,0.2151,0.2152,0.2153,0.2154,0.2153,0.2153,0,0,0,0,0,0,0.2026,0.2029,0.206,0.2049,0.2053,0.2075,0.2081,0.2085,0.2091,0.2113,0.2117,0.2103,0.2133,0.2137,0.2142,0.2136,0.2153,0.2153,0.2155,0.2154,0.2153,0.2126,0,0,0,0,0,0,0.2024,0.2028,0.2027,0.2048,0.2054,0.2063,0.2081,0.2086,0.2092,0.2095,0.2115,0.2119,0.2134,0.214,0.2142,0.2137,0.2154,0.2155,0.2154,0.2153,0.2128,0.2125,0.2122,0,0,0,0,0,0.2023,0.2019,0.2027,0.203,0.2052,0.2063,0.2066,0.2083,0.2091,0.209,0.2104,0.2118,0.2136,0.214,0.2143,0.2138,0.2156,0.2154,0.2153,0.2129,0.2125,0.2122,0,0,0,0,0,0,0.1996,0.2022,0.2031,0.2034,0.2046,0.2067,0.2066,0.2079,0.2089,0.2091,0.2112,0.2117,0.2119,0.2129,0.2134,0.2135,0.2148,0.2147,0.2128,0.2125,0.2122,0.2119,0.2155,0,0,0,0,0,0.1991,0.1997,0.2019,0.2019,0.2024,0.2044,0.2049,0.2062,0.2075,0.208,0.2095,0.2107,0.2116,0.2121,0.213,0.2129,0.2134,0.2127,0.2124,0.2122,0.2121,0.2121,0.2118,0.2149,0.2149,0.2149,0,0,0.1979,0.1994,0.1996,0.2013,0.2024,0.203,0.2048,0.2054,0.2058,0.2081,0.2087,0.2097,0.2113,0.2115,0.2117,0.2123,0.2114,0.2121,0.2118,0.2119,0.212,0.2117,0.2114,0.2148,0.2148,0.2149,0,0,0.1961,0.1973,0.1974,0.1984,0.2,0.2013,0.2013,0.2033,0.2041,0.2047,0.2064,0.207,0.2084,0.2094,0.2101,0.2085,0.2098,0.2088,0.2073,0.2072,0.207,0.2068,0.2062,0.2059,0.2087,0.2087,0.2087,0,0.1944,0.1954,0.1973,0.1977,0.1983,0.2004,0.2005,0.2014,0.2033,0.2037,0.2044,0.2062,0.2074,0.2078,0.2074,0.2079,0.208,0.2085,0.2069,0.2067,0.2065,0.206,0.2057,0.2085,0.2085,0.2086,0.2086,0,0.1933,0.1939,0.1937,0.1954,0.1961,0.1963,0.1982,0.1987,0.1998,0.201,0.2016,0.203,0.2042,0.2044,0.2056,0.205,0.2054,0.2065,0.2078,0.206,0.2055,0.2054,0.2083,0.2084,0.2084,0.2084,0,0,0.1899,0.1925,0.1924,0.1932,0.1951,0.1956,0.1959,0.1971,0.1974,0.1985,0.1988,0.1999,0.2009,0.2017,0.203,0.203,0.2016,0.204,0.2041,0.2035,0.2009,0.2001,0.1998,0.2024,0.2024,0.2024,0.2008,0,0.1883,0.189,0.1907,0.1908,0.1914,0.1934,0.1936,0.1948,0.1959,0.1966,0.1978,0.1986,0.1998,0.2003,0.2004,0.2017,0.2011,0.2019,0.2027,0.2027,0.2022,0.1996,0.1987,0.1971,0.2006,0.2006,0.2005,0,0.1866,0.1876,0.1878,0.1896,0.1899,0.1901,0.1913,0.1919,0.1932,0.1941,0.1949,0.1963,0.1967,0.1979,0.1985,0.1989,0.1994,0.2001,0.2001,0.2002,0.2015,0.1996,0.1967,0.1964,0.2003,0.2003,0.2003,0,0.1841,0.1855,0.1858,0.1864,0.1885,0.1886,0.1895,0.1909,0.1914,0.1924,0.1928,0.1938,0.1944,0.1951,0.1968,0.1975,0.1971,0.1985,0.1978,0.1977,0.1976,0.1976,0.1947,0.1979,0.1979,0.1979,0.1979,0,0.1822,0.1822,0.1846,0.1848,0.1849,0.1868,0.1868,0.1879,0.1891,0.1895,0.1913,0.1916,0.1937,0.1943,0.1956,0.1958,0.1961,0.1967,0.197,0.1965,0.1964,0.1968,0.197,0.1979,0.1979,0.1979,0.1979,0,0.1793,0.181,0.1814,0.1834,0.1838,0.1838,0.1855,0.1857,0.1869,0.1874,0.1876,0.1895,0.1903,0.192,0.1932,0.194,0.1939,0.1946,0.1934,0.1937,0.1928,0.1929,0.1901,0.1898,0.1932,0.1932,0.1931,0,0.178,0.1781,0.18,0.1804,0.1812,0.1818,0.1823,0.1842,0.1847,0.1862,0.1862,0.1871,0.1879,0.189,0.1905,0.1914,0.192,0.191,0.1922,0.1916,0.192,0.1919,0.1919,0.1907,0.1907,0.1906,0.1906,0,0.1754,0.1762,0.1769,0.1779,0.1786,0.1794,0.1804,0.1806,0.1827,0.1832,0.184,0.1846,0.1858,0.1866,0.1877,0.1886,0.1899,0.1902,0.1901,0.1895,0.1889,0.1892,0.1927,0.1903,0.1903,0.1903,0.1903,0.1903,0.1732,0.1734,0.1747,0.1755,0.1764,0.1773,0.1775,0.1788,0.1794,0.1806,0.1816,0.1822,0.1835,0.1852,0.186,0.1865,0.1872,0.187,0.187,0.1869,0.1866,0.1888,0.1867,0.1867,0.1867,0.1867,0.1868,0,0.1707,0.1717,0.1723,0.1736,0.1742,0.1754,0.1765,0.1769,0.1774,0.1785,0.1792,0.1801,0.1809,0.1824,0.1833,0.1834,0.1841,0.1836,0.1836,0.1838,0.186,0.186,0.1831,0.1831,0.1831,0.1831,0.1831,0.1831,0.1694,0.1697,0.1706,0.1713,0.1723,0.1729,0.1735,0.1742,0.1751,0.176,0.1766,0.1776,0.1789,0.1799,0.1806,0.1811,0.1813,0.1806,0.1813,0.1833,0.1836,0.184,0.184,0.1807,0.1807,0.179,0.179,0.179]},{"header":{"parameterUnit":"m.s-1","parameterCategory":1,"la1":30.2991,"la2":30.254,"lo1":-89.0895,"lo2":-89.0444,"dy":0.0017,"dx":0.0017,"nx":28,"ny":28,"refTime":"2025-11-10T09:00:00:Z","depth":0,"parameterNumber":3,"parameterNumberName":"V-component_of_WINDS"},"data":[0,0,0,0,0,0,0,0,0,0,0,0,0,0,0,0,0,0,0,0,0,0,0,0,0,0,0,0,0,0,0,0,0,0,0,0,0,0,0,0,0,0,0,0,0,0,0,0,0,0,0,0,0,0,0,0,0,0,1.9856,1.9855,0,1.9797,1.9797,1.9796,1.9804,1.9805,1.9806,1.9807,1.9743,1.9741,1.9738,0,0,0,0,0,0,0,0,0,0,0,0,0,1.9971,1.9968,1.9856,1.9855,1.9854,1.9797,1.9797,1.9796,1.9804,1.9805,1.9807,1.9808,1.9744,1.9741,1.9738,0,0,0,0,0,0,0,0,0,0,0,0,0,1.9917,1.9968,1.9856,1.9852,1.9851,1.9797,1.9796,1.9795,1.9804,1.9805,1.9807,1.9808,1.9745,1.9741,1.9738,1.9683,0,0,1.9725,1.9724,0,0,0,0,0,0,0,0,1.992,1.9913,1.9853,1.9852,1.9851,1.981,1.9814,1.9758,1.9804,1.9822,1.9807,1.9809,1.9764,1.9759,1.9744,1.968,1.9678,1.9725,1.9723,1.9721,1.972,0,0,0,0,0,0,0,1.9924,1.9915,1.9832,1.9852,1.9851,1.9851,1.9846,1.9803,1.9785,1.982,1.9821,1.9814,1.9764,1.9748,1.9743,1.9677,1.9725,1.9722,1.9719,1.9718,1.9565,1.9564,0,0,0,0,0,0,1.9929,1.9919,1.9834,1.9831,1.989,1.9848,1.9842,1.9821,1.9785,1.9782,1.9813,1.9814,1.9754,1.9747,1.9741,1.9675,1.9721,1.9717,1.9715,1.9567,1.9565,1.9563,0,0,0,0,0,0,1.9932,1.9922,1.9837,1.9875,1.9864,1.9845,1.9822,1.9819,1.9804,1.978,1.9776,1.98,1.9755,1.9746,1.9698,1.9672,1.9716,1.9712,1.9569,1.9566,1.9564,1.9542,0,0,0,0,0,0,1.9935,1.9923,1.9903,1.9874,1.9862,1.9796,1.982,1.9817,1.9797,1.9799,1.9767,1.9763,1.9755,1.9704,1.9694,1.9668,1.9709,1.9571,1.9568,1.9565,1.9545,1.9539,1.9534,0,0,0,0,0,1.9939,1.9898,1.9902,1.9891,1.9837,1.9794,1.9787,1.978,1.9795,1.9775,1.9759,1.9764,1.9677,1.9699,1.9688,1.966,1.9573,1.9569,1.9565,1.9548,1.9541,1.9535,0,0,0,0,0,0,1.9922,1.9894,1.9898,1.9847,1.9823,1.9796,1.977,1.9773,1.9743,1.9746,1.9737,1.973,1.9681,1.9666,1.969,1.9606,1.9627,1.9621,1.9617,1.961,1.9605,1.9609,1.9706,0,0,0,0,0,1.9913,1.9882,1.9859,1.9816,1.9804,1.9789,1.977,1.9767,1.9741,1.9731,1.9712,1.9686,1.9653,1.9631,1.9599,1.9543,1.9536,1.9519,1.9514,1.9509,1.9504,1.9473,1.9465,1.9551,1.9551,1.9551,0,0,1.9893,1.9873,1.9854,1.9812,1.9793,1.976,1.978,1.9744,1.972,1.9725,1.9679,1.9664,1.9634,1.9582,1.9558,1.9568,1.9479,1.9505,1.9501,1.9498,1.9468,1.946,1.9453,1.9548,1.9549,1.9549,0,0,1.9839,1.9822,1.9784,1.9765,1.9737,1.9728,1.9718,1.9691,1.9682,1.9635,1.9639,1.9609,1.9551,1.953,1.9512,1.9451,1.9454,1.944,1.9412,1.9382,1.9375,1.9369,1.9346,1.9339,1.9435,1.9435,1.9435,0,1.9816,1.9768,1.9764,1.9728,1.9709,1.9714,1.9675,1.9656,1.9619,1.9605,1.9617,1.9546,1.9526,1.9469,1.9454,1.9439,1.9428,1.9444,1.9377,1.9371,1.9365,1.9343,1.9335,1.9434,1.9434,1.9434,1.9434,0,1.9742,1.9709,1.9681,1.9647,1.9624,1.9587,1.9576,1.9553,1.9552,1.9541,1.9493,1.947,1.9434,1.942,1.9418,1.9362,1.9369,1.9379,1.94,1.9355,1.9335,1.9326,1.9432,1.9432,1.9432,1.9433,0,0,1.9675,1.9639,1.9629,1.9613,1.9583,1.9556,1.9519,1.9485,1.9466,1.944,1.9407,1.9359,1.9369,1.9348,1.9343,1.9317,1.9269,1.933,1.9329,1.9319,1.9206,1.9198,1.9189,1.9272,1.927,1.9269,1.9208,0,1.9618,1.9553,1.9548,1.9489,1.9458,1.9463,1.943,1.9407,1.9396,1.9366,1.9353,1.9319,1.9334,1.9322,1.9296,1.9281,1.9246,1.9285,1.924,1.9239,1.9247,1.9178,1.917,1.9114,1.92,1.9199,1.9198,0,1.9542,1.9516,1.9454,1.9429,1.9415,1.9386,1.9354,1.9327,1.9301,1.9294,1.9272,1.9271,1.9231,1.9254,1.9199,1.9225,1.9207,1.9196,1.9194,1.9189,1.9215,1.917,1.9095,1.9087,1.9185,1.9186,1.9187,0,1.9499,1.9447,1.9404,1.939,1.936,1.9339,1.9325,1.9301,1.9281,1.9252,1.9239,1.9206,1.9188,1.9162,1.9151,1.9169,1.9096,1.9119,1.9089,1.9089,1.9072,1.9073,1.8993,1.9062,1.9062,1.9062,1.9062,0,1.9435,1.9397,1.9384,1.9357,1.9315,1.9309,1.9266,1.9253,1.9232,1.9201,1.9203,1.9174,1.9163,1.9133,1.9124,1.9079,1.9071,1.9064,1.9062,1.9063,1.9064,1.905,1.9054,1.906,1.906,1.9061,1.9061,0,1.9379,1.9369,1.9322,1.9297,1.929,1.9259,1.9238,1.9211,1.9201,1.9162,1.9153,1.9136,1.91,1.9088,1.9044,1.9038,1.8985,1.8987,1.8995,1.8994,1.8964,1.8967,1.8871,1.8858,1.8937,1.8936,1.8935,0,1.9338,1.9309,1.9282,1.9263,1.9248,1.9217,1.9197,1.919,1.9168,1.9137,1.9114,1.9078,1.905,1.8992,1.8974,1.8941,1.8941,1.891,1.8936,1.8938,1.894,1.8941,1.8938,1.8905,1.8904,1.8903,1.8903,0,1.9267,1.9264,1.9235,1.9205,1.9181,1.9157,1.9133,1.9116,1.9106,1.9081,1.9045,1.9023,1.8979,1.8943,1.8909,1.8893,1.8895,1.8895,1.8886,1.8886,1.8892,1.8888,1.898,1.8897,1.8897,1.8898,1.8898,1.8898,1.9217,1.9191,1.9168,1.9136,1.9118,1.9096,1.907,1.9057,1.9027,1.8991,1.8989,1.895,1.8924,1.8879,1.8861,1.883,1.8838,1.8825,1.8822,1.8819,1.8816,1.8898,1.8823,1.8824,1.8824,1.8824,1.8824,0,1.9145,1.9131,1.9102,1.9069,1.9044,1.905,1.9024,1.9002,1.8968,1.8945,1.8917,1.8876,1.8841,1.8822,1.8787,1.8766,1.8766,1.8757,1.8758,1.8754,1.8811,1.8822,1.8757,1.8757,1.8757,1.8757,1.8757,1.8757,1.9105,1.9062,1.9056,1.9004,1.899,1.8953,1.8937,1.8916,1.8898,1.8852,1.8824,1.8812,1.879,1.8754,1.8722,1.8717,1.8704,1.8694,1.869,1.8743,1.875,1.8756,1.8766,1.8691,1.8691,1.8635,1.8635,1.8634]}]]